Terminal Aerodrome Forecast
Issued by NWS Upton, NY

Home | Current Version | Previous Version | Text Only | Print | Product List | Glossary On
Versions: 1 2 3 4 5 6 7 8 9 10 11 12 13 14 15 16 17 18 19 20 21 22 23 24 25 26 27 28 29 30
000
FTUS41 KOKX 261342 AAA
TAFLGA
TAF AMD
KLGA 261342Z 2614/2712 32010KT P6SM FEW250
     FM261600 28012G20KT P6SM FEW250
     FM262300 30010KT P6SM FEW250
     FM270200 35007KT P6SM FEW250=

USA.gov is the U.S. government's official web portal to all federal, state and local government web resources and services.